Year,Month,Day,Hour,Minute,Value (Times are PST for temperature in C)
2019,09,23,00,00,15.80
2019,09,23,00,01,15.80
2019,09,23,00,02,15.80
2019,09,23,00,03,15.80
2019,09,23,00,04,15.80
2019,09,23,00,05,15.80
2019,09,23,00,06,15.80
2019,09,23,00,07,15.80
2019,09,23,00,08,15.80
2019,09,23,00,09,15.80
2019,09,23,00,10,15.80
2019,09,23,00,11,15.80
2019,09,23,00,12,15.80
2019,09,23,00,13,15.80
2019,09,23,00,14,15.80
2019,09,23,00,15,15.80
2019,09,23,00,16,15.80
2019,09,23,00,17,15.80
2019,09,23,00,18,15.80
2019,09,23,00,19,15.80
2019,09,23,00,20,15.80
2019,09,23,00,21,15.80
2019,09,23,00,22,15.80
2019,09,23,00,23,15.80
2019,09,23,00,24,15.80
2019,09,23,00,25,15.80
2019,09,23,00,26,15.80
2019,09,23,00,27,15.80
2019,09,23,00,28,15.80
2019,09,23,00,29,15.80
2019,09,23,00,30,15.80
2019,09,23,00,31,15.80
2019,09,23,00,32,15.80
2019,09,23,00,33,15.80
2019,09,23,00,34,15.80
2019,09,23,00,35,15.80
2019,09,23,00,36,15.80
2019,09,23,00,37,15.80
2019,09,23,00,38,15.80
2019,09,23,00,39,15.80
2019,09,23,00,40,15.80
2019,09,23,00,41,15.80
2019,09,23,00,42,15.80
2019,09,23,00,43,15.70
2019,09,23,00,44,15.70
2019,09,23,00,45,15.70
2019,09,23,00,46,15.70
2019,09,23,00,47,15.70
2019,09,23,00,48,15.70
2019,09,23,00,49,15.70
2019,09,23,00,50,15.70
2019,09,23,00,51,15.70
2019,09,23,00,52,15.70
2019,09,23,00,53,15.70
2019,09,23,00,54,15.70
2019,09,23,00,55,15.60
2019,09,23,00,56,15.60
2019,09,23,00,57,15.60
2019,09,23,00,58,15.60
2019,09,23,00,59,15.60
2019,09,23,01,00,15.60
2019,09,23,01,01,15.60
2019,09,23,01,02,15.60
2019,09,23,01,03,15.60
2019,09,23,01,04,15.60
2019,09,23,01,05,15.60
2019,09,23,01,06,15.60
2019,09,23,01,07,15.60
2019,09,23,01,08,15.60
2019,09,23,01,09,15.60
2019,09,23,01,10,15.60
2019,09,23,01,11,15.60
2019,09,23,01,12,15.60
2019,09,23,01,13,15.60
2019,09,23,01,14,15.60
2019,09,23,01,15,15.50
2019,09,23,01,16,15.50
2019,09,23,01,17,15.50
2019,09,23,01,18,15.50
2019,09,23,01,19,15.50
2019,09,23,01,20,15.50
2019,09,23,01,21,15.50
2019,09,23,01,22,15.50
2019,09,23,01,23,15.50
2019,09,23,01,24,15.50
2019,09,23,01,25,15.50
2019,09,23,01,26,15.50
2019,09,23,01,27,15.50
2019,09,23,01,28,15.50
2019,09,23,01,29,15.50
2019,09,23,01,30,15.50
2019,09,23,01,31,15.50
2019,09,23,01,32,15.50
2019,09,23,01,33,15.50
2019,09,23,01,34,15.50
2019,09,23,01,35,15.50
2019,09,23,01,36,15.50
2019,09,23,01,37,15.50
2019,09,23,01,38,15.50
2019,09,23,01,39,15.50
2019,09,23,01,40,15.50
2019,09,23,01,41,15.50
2019,09,23,01,42,15.50
2019,09,23,01,43,15.50
2019,09,23,01,44,15.50
2019,09,23,01,45,15.50
2019,09,23,01,46,15.40
2019,09,23,01,47,15.40
2019,09,23,01,48,15.40
2019,09,23,01,49,15.40
2019,09,23,01,50,15.40
2019,09,23,01,51,15.40
2019,09,23,01,52,15.40
2019,09,23,01,53,15.40
2019,09,23,01,54,15.40
2019,09,23,01,55,15.40
2019,09,23,01,56,15.40
2019,09,23,01,57,15.40
2019,09,23,01,58,15.40
2019,09,23,01,59,15.40
2019,09,23,02,00,15.40
2019,09,23,02,01,15.40
2019,09,23,02,02,15.40
2019,09,23,02,03,15.40
2019,09,23,02,04,15.40
2019,09,23,02,05,15.40
2019,09,23,02,06,15.40
2019,09,23,02,07,15.40
2019,09,23,02,08,15.40
2019,09,23,02,09,15.40
2019,09,23,02,10,15.40
2019,09,23,02,11,15.30
2019,09,23,02,12,15.40
2019,09,23,02,13,15.30
2019,09,23,02,14,15.30
2019,09,23,02,15,15.30
2019,09,23,02,16,15.30
2019,09,23,02,17,15.30
2019,09,23,02,18,15.30
2019,09,23,02,19,15.30
2019,09,23,02,20,15.30
2019,09,23,02,21,15.30
2019,09,23,02,22,15.30
2019,09,23,02,23,15.30
2019,09,23,02,24,15.30
2019,09,23,02,25,15.30
2019,09,23,02,26,15.30
2019,09,23,02,27,15.30
2019,09,23,02,28,15.30
2019,09,23,02,29,15.30
2019,09,23,02,30,15.30
2019,09,23,02,31,15.30
2019,09,23,02,32,15.30
2019,09,23,02,33,15.30
2019,09,23,02,34,15.30
2019,09,23,02,35,15.30
2019,09,23,02,36,15.30
2019,09,23,02,37,15.20
2019,09,23,02,38,15.20
2019,09,23,02,39,15.20
2019,09,23,02,40,15.20
2019,09,23,02,41,15.20
2019,09,23,02,42,15.20
2019,09,23,02,43,15.20
2019,09,23,02,44,15.20
2019,09,23,02,45,15.20
2019,09,23,02,46,15.20
2019,09,23,02,47,15.20
2019,09,23,02,48,15.20
2019,09,23,02,49,15.10
2019,09,23,02,50,15.20
2019,09,23,02,51,15.10
2019,09,23,02,52,15.20
2019,09,23,02,53,15.20
2019,09,23,02,54,15.20
2019,09,23,02,55,15.20
2019,09,23,02,56,15.20
2019,09,23,02,57,15.20
2019,09,23,02,58,15.20
2019,09,23,02,59,15.20
2019,09,23,03,00,15.20
2019,09,23,03,01,15.20
2019,09,23,03,02,15.20
2019,09,23,03,03,15.20
2019,09,23,03,04,15.20
2019,09,23,03,05,15.10
2019,09,23,03,06,15.10
2019,09,23,03,07,15.20
2019,09,23,03,08,15.20
2019,09,23,03,09,15.20
2019,09,23,03,10,15.10
2019,09,23,03,11,15.10
2019,09,23,03,12,15.10
2019,09,23,03,13,15.10
2019,09,23,03,14,15.10
2019,09,23,03,15,15.10
2019,09,23,03,16,15.10
2019,09,23,03,17,15.10
2019,09,23,03,18,15.10
2019,09,23,03,19,15.10
2019,09,23,03,20,15.10
2019,09,23,03,21,15.10
2019,09,23,03,22,15.10
2019,09,23,03,23,15.10
2019,09,23,03,24,15.10
2019,09,23,03,25,15.10
2019,09,23,03,26,15.10
2019,09,23,03,27,15.10
2019,09,23,03,28,15.00
2019,09,23,03,29,15.00
2019,09,23,03,30,15.00
2019,09,23,03,31,15.00
2019,09,23,03,32,15.00
2019,09,23,03,33,15.00
2019,09,23,03,34,15.00
2019,09,23,03,35,15.00
2019,09,23,03,36,15.00
2019,09,23,03,37,15.00
2019,09,23,03,38,14.90
2019,09,23,03,39,14.90
2019,09,23,03,40,14.90
2019,09,23,03,41,14.90
2019,09,23,03,42,14.90
2019,09,23,03,43,14.90
2019,09,23,03,44,14.90
2019,09,23,03,45,14.90
2019,09,23,03,46,14.90
2019,09,23,03,47,14.90
2019,09,23,03,48,14.90
2019,09,23,03,49,14.90
2019,09,23,03,50,14.90
2019,09,23,03,51,14.90
2019,09,23,03,52,14.90
2019,09,23,03,53,15.00
2019,09,23,03,54,15.00
2019,09,23,03,55,14.90
2019,09,23,03,56,15.00
2019,09,23,03,57,15.00
2019,09,23,03,58,14.90
2019,09,23,03,59,15.00
2019,09,23,04,00,14.90
2019,09,23,04,01,14.90
2019,09,23,04,02,14.90
2019,09,23,04,03,14.90
2019,09,23,04,04,14.90
2019,09,23,04,05,14.90
2019,09,23,04,06,14.90
2019,09,23,04,07,14.90
2019,09,23,04,08,14.90
2019,09,23,04,09,14.90
2019,09,23,04,10,14.90
2019,09,23,04,11,14.90
2019,09,23,04,12,14.90
2019,09,23,04,13,14.90
2019,09,23,04,14,14.90
2019,09,23,04,15,14.90
2019,09,23,04,16,14.90
2019,09,23,04,17,14.90
2019,09,23,04,18,14.90
2019,09,23,04,19,14.90
2019,09,23,04,20,14.90
2019,09,23,04,21,14.90
2019,09,23,04,22,14.90
2019,09,23,04,23,14.90
2019,09,23,04,24,14.80
2019,09,23,04,25,14.80
2019,09,23,04,26,14.80
2019,09,23,04,27,14.80
2019,09,23,04,28,14.80
2019,09,23,04,29,14.80
2019,09,23,04,30,14.80
2019,09,23,04,31,14.80
2019,09,23,04,32,14.80
2019,09,23,04,33,14.80
2019,09,23,04,34,14.80
2019,09,23,04,35,14.80
2019,09,23,04,36,14.80
2019,09,23,04,37,14.80
2019,09,23,04,38,14.80
2019,09,23,04,39,14.70
2019,09,23,04,40,14.70
2019,09,23,04,41,14.70
2019,09,23,04,42,14.70
2019,09,23,04,43,14.70
2019,09,23,04,44,14.70
2019,09,23,04,45,14.70
2019,09,23,04,46,14.70
2019,09,23,04,47,14.70
2019,09,23,04,48,14.70
2019,09,23,04,49,14.70
2019,09,23,04,50,14.70
2019,09,23,04,51,14.70
2019,09,23,04,52,14.70
2019,09,23,04,53,14.70
2019,09,23,04,54,14.70
2019,09,23,04,55,14.70
2019,09,23,04,56,14.70
2019,09,23,04,57,14.70
2019,09,23,04,58,14.70
2019,09,23,04,59,14.70
2019,09,23,05,00,14.70
2019,09,23,05,01,14.70
2019,09,23,05,02,14.70
2019,09,23,07,52,14.80
2019,09,23,07,53,14.90
2019,09,23,07,54,14.90
2019,09,23,07,55,14.90
2019,09,23,07,56,14.90
2019,09,23,07,57,14.90
2019,09,23,07,58,14.90
2019,09,23,07,59,14.80
2019,09,23,08,00,14.80
2019,09,23,08,01,14.80
2019,09,23,08,02,14.80
2019,09,23,08,03,14.80
2019,09,23,08,04,14.80
2019,09,23,08,05,14.80
2019,09,23,08,06,14.80
2019,09,23,08,07,14.80
2019,09,23,08,08,14.80
2019,09,23,08,09,14.80
2019,09,23,08,10,14.80
2019,09,23,08,11,14.80
2019,09,23,08,12,14.70
2019,09,23,08,13,14.70
2019,09,23,08,14,14.70
2019,09,23,08,15,14.70
2019,09,23,08,16,14.60
2019,09,23,08,17,14.60
2019,09,23,08,18,14.60
2019,09,23,08,19,14.50
2019,09,23,08,20,14.40
2019,09,23,08,21,14.40
2019,09,23,08,22,14.40
2019,09,23,08,23,14.40
2019,09,23,08,24,14.30
2019,09,23,08,25,14.30
2019,09,23,08,26,14.30
2019,09,23,08,27,14.30
2019,09,23,08,28,14.20
2019,09,23,08,29,14.20
2019,09,23,08,30,14.20
2019,09,23,08,31,14.20
2019,09,23,08,32,14.20
2019,09,23,08,33,14.20
2019,09,23,08,34,14.20
2019,09,23,08,35,14.10
2019,09,23,08,36,14.10
2019,09,23,08,37,14.10
2019,09,23,08,38,14.10
2019,09,23,08,39,14.10
2019,09,23,08,40,14.10
2019,09,23,08,41,14.10
2019,09,23,08,42,14.10
2019,09,23,08,43,14.10
2019,09,23,08,44,14.10
2019,09,23,08,45,14.00
2019,09,23,08,46,14.00
2019,09,23,08,47,14.00
2019,09,23,08,48,14.00
2019,09,23,08,49,14.00
2019,09,23,08,50,14.00
2019,09,23,08,51,14.00
2019,09,23,08,52,13.90
2019,09,23,08,53,13.90
2019,09,23,08,54,13.90
2019,09,23,08,55,13.90
2019,09,23,08,56,13.90
2019,09,23,08,57,13.90
2019,09,23,08,58,13.90
2019,09,23,08,59,13.90
2019,09,23,09,00,13.80
2019,09,23,09,01,13.80
2019,09,23,09,02,13.80
2019,09,23,09,03,13.80
2019,09,23,09,04,13.80
2019,09,23,09,05,13.80
2019,09,23,09,06,13.80
2019,09,23,09,07,13.90
2019,09,23,09,08,13.90
2019,09,23,09,09,13.90
2019,09,23,09,10,13.90
2019,09,23,09,11,13.90
2019,09,23,09,12,13.90
2019,09,23,09,13,14.00
2019,09,23,09,14,14.00
2019,09,23,09,15,14.00
2019,09,23,09,16,14.10
2019,09,23,09,17,14.10
2019,09,23,09,18,14.10
2019,09,23,09,19,14.10
2019,09,23,09,20,14.20
2019,09,23,09,21,14.20
2019,09,23,09,22,14.20
2019,09,23,09,23,14.20
2019,09,23,09,24,14.20
2019,09,23,09,25,14.20
2019,09,23,09,26,14.20
2019,09,23,09,27,14.20
2019,09,23,09,28,14.20
2019,09,23,09,29,14.20
2019,09,23,09,30,14.20
2019,09,23,09,31,14.20
2019,09,23,09,32,14.20
2019,09,23,09,33,14.20
2019,09,23,09,34,14.20
2019,09,23,09,35,14.20
2019,09,23,09,36,14.30
2019,09,23,09,37,14.30
2019,09,23,09,38,14.30
2019,09,23,09,39,14.30
2019,09,23,09,40,14.30
2019,09,23,09,41,14.30
2019,09,23,09,42,14.30
2019,09,23,09,43,14.30
2019,09,23,09,44,14.30
2019,09,23,09,45,14.30
2019,09,23,09,46,14.30
2019,09,23,09,47,14.30
2019,09,23,09,48,14.30
2019,09,23,09,49,14.30
2019,09,23,09,50,14.30
2019,09,23,09,51,14.30
2019,09,23,09,52,14.30
2019,09,23,09,53,14.30
2019,09,23,09,54,14.30
2019,09,23,09,55,14.30
2019,09,23,09,56,14.30
2019,09,23,09,57,14.20
2019,09,23,09,58,14.30
2019,09,23,09,59,14.20
2019,09,23,10,00,14.20
2019,09,23,10,01,14.20
2019,09,23,10,02,14.20
2019,09,23,10,03,14.20
2019,09,23,10,04,14.20
2019,09,23,10,05,14.20
2019,09,23,10,06,14.10
2019,09,23,10,07,14.10
2019,09,23,10,08,14.10
2019,09,23,10,09,14.00
2019,09,23,10,10,14.00
2019,09,23,10,11,14.00
2019,09,23,10,12,14.00
2019,09,23,10,13,13.90
2019,09,23,10,14,13.90
2019,09,23,10,15,13.90
2019,09,23,10,16,13.90
2019,09,23,10,17,13.90
2019,09,23,10,18,13.80
2019,09,23,10,19,13.80
2019,09,23,10,20,13.80
2019,09,23,10,21,13.80
2019,09,23,10,22,13.80
2019,09,23,10,23,13.80
2019,09,23,10,24,13.80
2019,09,23,10,25,13.70
2019,09,23,10,26,13.70
2019,09,23,10,27,13.70
2019,09,23,10,28,13.70
2019,09,23,10,29,13.70
2019,09,23,10,30,13.70
2019,09,23,10,31,13.70
2019,09,23,10,32,13.70
2019,09,23,10,33,13.70
2019,09,23,10,34,13.70
2019,09,23,10,35,13.70
2019,09,23,10,36,13.70
2019,09,23,10,37,13.70
2019,09,23,10,38,13.70
2019,09,23,10,39,13.70
2019,09,23,10,40,13.70
2019,09,23,10,41,13.70
2019,09,23,10,42,13.70
2019,09,23,10,43,13.70
2019,09,23,10,44,13.70
2019,09,23,10,45,13.70
2019,09,23,10,46,13.70
2019,09,23,10,47,13.80
2019,09,23,10,48,13.80
2019,09,23,10,49,13.90
2019,09,23,10,50,13.90
2019,09,23,10,51,13.90
2019,09,23,10,52,13.90
2019,09,23,10,53,13.90
2019,09,23,10,54,13.90
2019,09,23,10,55,13.90
2019,09,23,10,56,13.80
2019,09,23,10,57,13.80
2019,09,23,10,58,13.80
2019,09,23,10,59,13.80
2019,09,23,11,00,13.80
2019,09,23,11,01,13.80
2019,09,23,11,02,13.80
2019,09,23,11,03,13.70
2019,09,23,11,04,13.70
2019,09,23,11,05,13.70
2019,09,23,11,06,13.70
2019,09,23,11,07,13.70
2019,09,23,11,08,13.70
2019,09,23,11,09,13.70
2019,09,23,11,10,13.70
2019,09,23,11,11,13.70
2019,09,23,11,12,13.70
2019,09,23,11,13,13.60
2019,09,23,11,14,13.60
2019,09,23,11,15,13.60
2019,09,23,11,16,13.60
2019,09,23,11,17,13.60
2019,09,23,11,18,13.60
2019,09,23,11,19,13.60
2019,09,23,11,20,13.60
2019,09,23,11,21,13.50
2019,09,23,11,22,13.50
2019,09,23,11,23,13.50
2019,09,23,11,24,13.50
2019,09,23,11,25,13.50
2019,09,23,11,26,13.50
2019,09,23,11,27,13.50
2019,09,23,11,28,13.40
2019,09,23,11,29,13.40
2019,09,23,11,30,13.40
2019,09,23,11,31,13.40
2019,09,23,11,32,13.40
2019,09,23,11,33,13.40
2019,09,23,11,34,13.40
2019,09,23,11,35,13.40
2019,09,23,11,36,13.40
2019,09,23,11,37,13.40
2019,09,23,11,38,13.40
2019,09,23,11,39,13.40
2019,09,23,11,40,13.40
2019,09,23,11,41,13.40
2019,09,23,11,42,13.40
2019,09,23,11,43,13.40
2019,09,23,11,44,13.40
2019,09,23,11,45,13.40
2019,09,23,11,46,13.40
2019,09,23,11,47,13.40
2019,09,23,11,48,13.40
2019,09,23,11,49,13.40
2019,09,23,11,50,13.40
2019,09,23,11,51,13.40
2019,09,23,11,52,13.40
2019,09,23,11,53,13.40
2019,09,23,11,54,13.40
2019,09,23,11,55,13.40
2019,09,23,11,56,13.40
2019,09,23,11,57,13.30
2019,09,23,11,58,13.30
2019,09,23,11,59,13.30
2019,09,23,12,00,13.40
2019,09,23,12,01,13.30
2019,09,23,12,02,13.30
2019,09,23,12,03,13.30
2019,09,23,12,04,13.30
2019,09,23,12,05,13.30
2019,09,23,12,06,13.40
2019,09,23,12,07,13.40
2019,09,23,12,08,13.40
2019,09,23,12,09,13.40
2019,09,23,12,10,13.40
2019,09,23,12,11,13.40
2019,09,23,12,12,13.40
2019,09,23,12,13,13.40
2019,09,23,12,14,13.40
2019,09,23,12,15,13.40
2019,09,23,12,16,13.40
2019,09,23,12,17,13.40
2019,09,23,12,18,13.40
2019,09,23,12,19,13.40
2019,09,23,12,20,13.40
2019,09,23,12,21,13.40
2019,09,23,12,22,13.40
2019,09,23,12,23,13.40
2019,09,23,12,24,13.30
2019,09,23,12,25,13.30
2019,09,23,12,26,13.30
2019,09,23,12,27,13.40
2019,09,23,12,28,13.40
2019,09,23,12,29,13.40
2019,09,23,12,30,13.40
2019,09,23,12,31,13.40
2019,09,23,12,32,13.40
2019,09,23,12,33,13.30
2019,09,23,12,34,13.30
2019,09,23,12,35,13.30
2019,09,23,12,36,13.20
2019,09,23,12,37,13.20
2019,09,23,12,38,13.20
2019,09,23,12,39,13.10
2019,09,23,12,40,13.10
2019,09,23,12,41,13.10
2019,09,23,12,42,13.00
2019,09,23,12,43,13.00
2019,09,23,12,44,13.00
2019,09,23,12,45,13.00
2019,09,23,12,46,13.00
2019,09,23,12,47,12.90
2019,09,23,12,48,12.90
2019,09,23,12,49,12.90
2019,09,23,12,50,12.90
2019,09,23,12,51,12.90
2019,09,23,12,52,12.90
2019,09,23,12,53,12.80
2019,09,23,12,54,12.80
2019,09,23,12,55,12.80
2019,09,23,12,56,12.80
2019,09,23,12,57,12.80
2019,09,23,12,58,12.70
2019,09,23,12,59,12.70
2019,09,23,13,00,12.70
2019,09,23,13,01,12.70
2019,09,23,13,02,12.70
2019,09,23,13,03,12.70
2019,09,23,13,04,12.70
2019,09,23,13,05,12.70
2019,09,23,13,06,12.70
2019,09,23,13,07,12.70
2019,09,23,13,08,12.60
2019,09,23,13,09,12.60
2019,09,23,13,10,12.60
2019,09,23,13,11,12.60
2019,09,23,13,12,12.60
2019,09,23,13,13,12.50
2019,09,23,13,14,12.50
2019,09,23,13,15,12.40
2019,09,23,13,16,12.40
2019,09,23,13,17,12.40
2019,09,23,13,18,12.40
2019,09,23,13,19,12.40
2019,09,23,13,20,12.40
2019,09,23,13,21,12.30
2019,09,23,13,22,12.30
2019,09,23,13,23,12.30
2019,09,23,13,24,12.30
2019,09,23,13,25,12.30
2019,09,23,13,26,12.30
2019,09,23,13,27,12.30
2019,09,23,13,28,12.30
2019,09,23,13,29,12.30
2019,09,23,13,30,12.30
2019,09,23,13,31,12.30
2019,09,23,13,32,12.30
2019,09,23,13,33,12.30
2019,09,23,13,34,12.30
2019,09,23,13,35,12.30
2019,09,23,13,36,12.30
2019,09,23,13,37,12.30
2019,09,23,13,38,12.30
2019,09,23,13,39,12.30
2019,09,23,13,40,12.30
2019,09,23,13,41,12.30
2019,09,23,13,42,12.30
2019,09,23,13,43,12.30
2019,09,23,13,44,12.30
2019,09,23,13,45,12.20
2019,09,23,13,46,12.20
2019,09,23,13,47,12.20
2019,09,23,13,48,12.20
2019,09,23,13,49,12.20
2019,09,23,13,50,12.20
2019,09,23,13,51,12.20
2019,09,23,13,52,12.20
2019,09,23,13,53,12.20
2019,09,23,13,54,12.20
2019,09,23,13,55,12.30
2019,09,23,13,56,12.30
2019,09,23,13,57,12.30
2019,09,23,13,58,12.30
2019,09,23,13,59,12.30
2019,09,23,14,00,12.30
2019,09,23,14,01,12.30
2019,09,23,14,02,12.30
2019,09,23,14,03,12.30
2019,09,23,14,04,12.30
2019,09,23,14,05,12.30
2019,09,23,14,06,12.30
2019,09,23,14,07,12.30
2019,09,23,14,08,12.30
2019,09,23,14,09,12.30
2019,09,23,14,10,12.30
2019,09,23,14,11,12.30
2019,09,23,14,12,12.30
2019,09,23,14,13,12.30
2019,09,23,14,14,12.40
2019,09,23,14,15,12.40
2019,09,23,14,16,12.40
2019,09,23,14,17,12.40
2019,09,23,14,18,12.40
2019,09,23,14,19,12.40
2019,09,23,14,20,12.40
2019,09,23,14,21,12.40
2019,09,23,14,22,12.40
2019,09,23,14,23,12.30
2019,09,23,14,24,12.30
2019,09,23,14,25,12.30
2019,09,23,14,26,12.30
2019,09,23,14,27,12.30
2019,09,23,14,28,12.40
2019,09,23,14,29,12.40
2019,09,23,14,30,12.40
2019,09,23,14,31,12.50
2019,09,23,14,32,12.50
2019,09,23,14,33,12.50
2019,09,23,14,34,12.50
2019,09,23,14,35,12.60
2019,09,23,14,36,12.60
2019,09,23,14,37,12.60
2019,09,23,14,38,12.60
2019,09,23,14,39,12.60
2019,09,23,14,40,12.60
2019,09,23,14,41,12.70
2019,09,23,14,42,12.70
2019,09,23,14,43,12.70
2019,09,23,14,44,12.70
2019,09,23,14,45,12.70
2019,09,23,14,46,12.80
2019,09,23,14,47,12.80
2019,09,23,14,48,12.80
2019,09,23,14,49,12.80
2019,09,23,14,50,12.80
2019,09,23,14,51,12.80
2019,09,23,14,52,12.80
2019,09,23,14,53,12.80
2019,09,23,14,54,12.80
2019,09,23,14,55,12.80
2019,09,23,14,56,12.80
2019,09,23,14,57,12.80
2019,09,23,14,58,12.80
2019,09,23,14,59,12.80
2019,09,23,15,00,12.80
2019,09,23,15,01,12.70
2019,09,23,15,02,12.70
2019,09,23,15,03,12.70
2019,09,23,15,04,12.70
2019,09,23,15,05,12.70
2019,09,23,15,06,12.70
2019,09,23,15,07,12.70
2019,09,23,15,08,12.70
2019,09,23,15,09,12.60
2019,09,23,15,10,12.60
2019,09,23,15,11,12.60
2019,09,23,15,12,12.60
2019,09,23,15,13,12.60
2019,09,23,15,14,12.60
2019,09,23,15,15,12.60
2019,09,23,15,16,12.60
2019,09,23,15,17,12.60
2019,09,23,15,18,12.60
2019,09,23,15,19,12.60
2019,09,23,15,20,12.60
2019,09,23,15,21,12.60
2019,09,23,15,22,12.60
2019,09,23,15,23,12.70
2019,09,23,15,24,12.70
2019,09,23,15,25,12.70
2019,09,23,15,26,12.70
2019,09,23,15,27,12.70
2019,09,23,15,28,12.70
2019,09,23,15,29,12.70
2019,09,23,15,30,12.70
2019,09,23,15,31,12.70
2019,09,23,15,32,12.70
2019,09,23,15,33,12.70
2019,09,23,15,34,12.80
2019,09,23,15,35,12.80
2019,09,23,15,36,12.80
2019,09,23,15,37,12.80
2019,09,23,15,38,12.80
2019,09,23,15,39,12.80
2019,09,23,15,40,12.80
2019,09,23,15,41,12.80
2019,09,23,15,42,12.80
2019,09,23,15,43,12.80
2019,09,23,15,44,12.80
2019,09,23,15,45,12.90
2019,09,23,15,46,12.90
2019,09,23,15,47,12.90
2019,09,23,15,48,12.90
2019,09,23,15,49,12.90
2019,09,23,15,50,12.90
2019,09,23,15,51,12.90
2019,09,23,15,52,12.90
2019,09,23,15,53,12.90
2019,09,23,15,54,12.90
2019,09,23,15,55,13.00
2019,09,23,15,56,13.00
2019,09,23,15,57,13.00
2019,09,23,15,58,13.00
2019,09,23,15,59,13.10
2019,09,23,16,00,13.10
2019,09,23,16,01,13.10
2019,09,23,16,02,13.10
2019,09,23,16,03,13.10
2019,09,23,16,04,13.10
2019,09,23,16,05,13.10
2019,09,23,16,06,13.10
2019,09,23,16,07,13.10
2019,09,23,16,08,13.10
2019,09,23,16,09,13.10
2019,09,23,16,10,13.10
2019,09,23,16,11,13.10
2019,09,23,16,12,13.10
2019,09,23,16,13,13.10
2019,09,23,16,14,13.10
2019,09,23,16,15,13.10
2019,09,23,16,16,13.10
2019,09,23,16,17,13.10
2019,09,23,16,18,13.20
2019,09,23,16,19,13.20
2019,09,23,16,20,13.20
2019,09,23,16,21,13.20
2019,09,23,16,22,13.20
2019,09,23,16,23,13.20
2019,09,23,16,24,13.20
2019,09,23,16,25,13.20
2019,09,23,16,26,13.20
2019,09,23,16,27,13.20
2019,09,23,16,28,13.20
2019,09,23,16,29,13.20
2019,09,23,16,30,13.20
2019,09,23,16,31,13.20
2019,09,23,16,32,13.20
2019,09,23,16,33,13.20
2019,09,23,16,34,13.20
2019,09,23,16,35,13.20
2019,09,23,16,36,13.20
2019,09,23,16,37,13.20
2019,09,23,16,38,13.20
2019,09,23,16,39,13.20
2019,09,23,16,40,13.20
2019,09,23,16,41,13.20
2019,09,23,16,42,13.20
2019,09,23,16,43,13.20
2019,09,23,16,44,13.20
2019,09,23,16,45,13.20
2019,09,23,16,46,13.20
2019,09,23,16,47,13.20
2019,09,23,16,48,13.20
2019,09,23,16,49,13.20
2019,09,23,16,50,13.20
2019,09,23,16,51,13.20
2019,09,23,16,52,13.20
2019,09,23,16,53,13.20
2019,09,23,16,54,13.20
2019,09,23,16,55,13.20
2019,09,23,16,56,13.20
2019,09,23,16,57,13.20
2019,09,23,16,58,13.20
2019,09,23,16,59,13.20
2019,09,23,17,00,13.20
2019,09,23,17,01,13.20
2019,09,23,17,02,13.20
2019,09,23,17,03,13.30
2019,09,23,17,04,13.30
2019,09,23,17,05,13.30
2019,09,23,17,06,13.30
2019,09,23,17,07,13.30
2019,09,23,17,08,13.30
2019,09,23,17,09,13.30
2019,09,23,17,10,13.30
2019,09,23,17,11,13.30
2019,09,23,17,12,13.20
2019,09,23,17,13,13.20
2019,09,23,17,14,13.20
2019,09,23,17,15,13.20
2019,09,23,17,16,13.20
2019,09,23,17,17,13.20
2019,09,23,17,18,13.10
2019,09,23,17,19,13.10
2019,09,23,17,20,13.10
2019,09,23,17,21,13.10
2019,09,23,17,22,13.10
2019,09,23,17,23,13.10
2019,09,23,17,24,13.20
2019,09,23,17,25,13.20
2019,09,23,17,26,13.20
2019,09,23,17,27,13.20
2019,09,23,17,28,13.20
2019,09,23,17,29,13.20
2019,09,23,17,30,13.20
2019,09,23,17,31,13.20
2019,09,23,17,32,13.20
2019,09,23,17,33,13.20
2019,09,23,17,34,13.20
2019,09,23,17,35,13.20
2019,09,23,17,36,13.20
2019,09,23,17,37,13.20
2019,09,23,17,38,13.20
2019,09,23,17,39,13.20
2019,09,23,17,40,13.20
2019,09,23,17,41,13.20
2019,09,23,17,42,13.20
2019,09,23,17,43,13.20
2019,09,23,17,44,13.20
2019,09,23,17,45,13.20
2019,09,23,17,46,13.30
2019,09,23,17,47,13.30
2019,09,23,17,48,13.30
2019,09,23,17,49,13.30
2019,09,23,17,50,13.30
2019,09,23,17,51,13.30
2019,09,23,17,52,13.30
2019,09,23,17,53,13.30
2019,09,23,17,54,13.40
2019,09,23,17,55,13.40
2019,09,23,17,56,13.40
2019,09,23,17,57,13.40
2019,09,23,17,58,13.40
2019,09,23,17,59,13.40
2019,09,23,18,00,13.40
2019,09,23,18,01,13.40
2019,09,23,18,02,13.40
2019,09,23,18,03,13.50
2019,09,23,18,04,13.40
2019,09,23,18,05,13.40
2019,09,23,18,06,13.50
2019,09,23,18,07,13.50
2019,09,23,18,08,13.40
2019,09,23,18,09,13.40
2019,09,23,18,10,13.40
2019,09,23,18,11,13.40
2019,09,23,18,12,13.40
2019,09,23,18,13,13.40
2019,09,23,18,14,13.40
2019,09,23,18,15,13.40
2019,09,23,18,16,13.40
2019,09,23,18,17,13.40
2019,09,23,18,18,13.40
2019,09,23,18,19,13.40
2019,09,23,18,20,13.40
2019,09,23,18,21,13.50
2019,09,23,18,22,13.50
2019,09,23,18,23,13.50
2019,09,23,18,24,13.50
2019,09,23,18,25,13.50
2019,09,23,18,26,13.50
2019,09,23,18,27,13.40
2019,09,23,18,28,13.50
2019,09,23,18,29,13.40
2019,09,23,18,30,13.40
2019,09,23,18,31,13.40
2019,09,23,18,32,13.40
2019,09,23,18,33,13.40
2019,09,23,18,34,13.40
2019,09,23,18,35,13.40
2019,09,23,18,36,13.40
2019,09,23,18,37,13.50
2019,09,23,18,38,13.50
2019,09,23,18,39,13.50
2019,09,23,18,40,13.50
2019,09,23,18,41,13.50
2019,09,23,18,42,13.50
2019,09,23,18,43,13.50
2019,09,23,18,44,13.50
2019,09,23,18,45,13.50
2019,09,23,18,46,13.50
2019,09,23,18,47,13.50
2019,09,23,18,48,13.60
2019,09,23,18,49,13.60
2019,09,23,18,50,13.60
2019,09,23,18,51,13.60
2019,09,23,18,52,13.60
2019,09,23,18,53,13.60
2019,09,23,18,54,13.60
2019,09,23,18,55,13.60
2019,09,23,18,56,13.60
2019,09,23,18,57,13.60
2019,09,23,18,58,13.60
2019,09,23,18,59,13.60
2019,09,23,19,00,13.60
2019,09,23,19,01,13.70
2019,09,23,19,02,13.70
2019,09,23,19,03,13.70
2019,09,23,19,04,13.70
2019,09,23,19,05,13.70
2019,09,23,19,06,13.70
2019,09,23,19,07,13.70
2019,09,23,19,08,13.70
2019,09,23,19,09,13.70
2019,09,23,19,10,13.70
2019,09,23,19,11,13.70
2019,09,23,19,12,13.70
2019,09,23,19,13,13.70
2019,09,23,19,14,13.70
2019,09,23,19,15,13.70
2019,09,23,19,16,13.70
2019,09,23,19,17,13.70
2019,09,23,19,18,13.70
2019,09,23,19,19,13.70
2019,09,23,19,20,13.60
2019,09,23,19,21,13.60
2019,09,23,19,22,13.60
2019,09,23,19,23,13.60
2019,09,23,19,24,13.60
2019,09,23,19,25,13.60
2019,09,23,19,26,13.60
2019,09,23,19,27,13.60
2019,09,23,19,28,13.60
2019,09,23,19,29,13.60
2019,09,23,19,30,13.60
2019,09,23,19,31,13.60
2019,09,23,19,32,13.60
2019,09,23,19,33,13.60
2019,09,23,19,34,13.60
2019,09,23,19,35,13.60
2019,09,23,19,36,13.60
2019,09,23,19,37,13.60
2019,09,23,19,38,13.60
2019,09,23,19,39,13.60
2019,09,23,19,40,13.60
2019,09,23,19,41,13.60
2019,09,23,19,42,13.60
2019,09,23,19,43,13.60
2019,09,23,19,44,13.60
2019,09,23,19,45,13.60
2019,09,23,19,46,13.60
2019,09,23,19,47,13.60
2019,09,23,19,48,13.60
2019,09,23,19,49,13.60
2019,09,23,19,50,13.60
2019,09,23,19,51,13.60
2019,09,23,19,52,13.60
2019,09,23,19,53,13.60
2019,09,23,19,54,13.60
2019,09,23,19,55,13.60
2019,09,23,19,56,13.60
2019,09,23,19,57,13.60
2019,09,23,19,58,13.60
2019,09,23,19,59,13.60
2019,09,23,20,00,13.60
2019,09,23,20,01,13.60
2019,09,23,20,02,13.60
2019,09,23,20,03,13.60
2019,09,23,20,04,13.60
2019,09,23,20,05,13.60
2019,09,23,20,06,13.60
2019,09,23,20,07,13.60
2019,09,23,20,08,13.60